[[{"header":{"parameterUnit":"m.s-1","parameterCategory":1,"la1":30.2991,"la2":30.254,"lo1":-89.0895,"lo2":-89.0444,"dy":0.0017,"dx":0.0017,"nx":28,"ny":28,"refTime":"2023-10-03T21:00:00:Z","depth":0,"parameterNumber":2,"parameterNumberName":"U-component_of_WINDS"},"data":[0,0,0,0,0,0,0,0,0,0,0,0,0,0,0,0,0,0,0,0,0,0,0,0,0,0,0,0,0,0,0,0,0,0,0,0,0,0,0,0,0,0,0,0,0,0,0,0,0,0,0,0,0,0,0,0,0,0,-4.0443,-4.0444,0,-4.0535,-4.0536,-4.0537,-4.0469,-4.0466,-4.0463,-4.046,-4.0558,-4.0564,-4.0569,0,0,0,0,0,0,0,0,0,0,0,0,0,-4.0213,-4.0217,-4.0443,-4.0444,-4.0445,-4.0535,-4.0536,-4.0537,-4.0469,-4.0466,-4.0462,-4.0459,-4.0557,-4.0563,-4.0569,0,0,0,0,0,0,0,0,0,0,0,0,0,-4.031,-4.0219,-4.0443,-4.0422,-4.0421,-4.0534,-4.0536,-4.0537,-4.047,-4.0466,-4.0461,-4.0457,-4.0554,-4.0562,-4.057,-4.071,0,0,-4.0595,-4.0599,0,0,0,0,0,0,0,0,-4.0304,-4.0318,-4.0424,-4.0424,-4.0423,-4.0486,-4.0491,-4.0595,-4.0471,-4.0452,-4.046,-4.0455,-4.0538,-4.0547,-4.0574,-4.0714,-4.0719,-4.0596,-4.0601,-4.0604,-4.0606,0,0,0,0,0,0,0,-4.0298,-4.0314,-4.0479,-4.0426,-4.0425,-4.041,-4.0418,-4.051,-4.0519,-4.0453,-4.0448,-4.046,-4.0537,-4.0567,-4.0576,-4.072,-4.0596,-4.0603,-4.0608,-4.0611,-4.0981,-4.0986,0,0,0,0,0,0,-4.0292,-4.0309,-4.0476,-4.0482,-4.0351,-4.0417,-4.0427,-4.047,-4.0518,-4.0521,-4.0464,-4.0456,-4.0555,-4.0567,-4.0579,-4.0747,-4.0604,-4.0612,-4.0616,-4.0976,-4.0982,-4.0988,0,0,0,0,0,0,-4.0288,-4.0308,-4.0473,-4.0394,-4.0414,-4.0426,-4.0475,-4.0474,-4.0504,-4.0526,-4.0527,-4.0492,-4.0552,-4.0568,-4.0678,-4.075,-4.0615,-4.0623,-4.097,-4.0978,-4.0985,-4.1083,0,0,0,0,0,0,-4.0281,-4.0307,-4.0359,-4.0396,-4.0418,-4.0569,-4.0479,-4.0479,-4.0518,-4.0509,-4.0553,-4.0556,-4.055,-4.0666,-4.0686,-4.0758,-4.0629,-4.0964,-4.0974,-4.0983,-4.1074,-4.1093,-4.111,0,0,0,0,0,-4.0273,-4.0383,-4.0362,-4.0382,-4.0484,-4.0573,-4.0586,-4.0575,-4.0524,-4.0577,-4.0591,-4.0555,-4.0738,-4.0678,-4.07,-4.0776,-4.096,-4.0971,-4.0982,-4.1066,-4.1089,-4.1109,0,0,0,0,0,0,-4.0355,-4.0388,-4.0364,-4.0489,-4.0529,-4.0561,-4.0628,-4.06,-4.0657,-4.0646,-4.0632,-4.0643,-4.0758,-4.0778,-4.071,-4.0914,-4.0841,-4.0857,-4.0897,-4.092,-4.0938,-4.0931,-4.0636,0,0,0,0,0,-4.0388,-4.0456,-4.0481,-4.0589,-4.061,-4.0616,-4.0654,-4.0643,-4.0684,-4.07,-4.0722,-4.0765,-4.0832,-4.0877,-4.094,-4.1076,-4.1085,-4.1139,-4.1157,-4.1171,-4.1186,-4.1261,-4.1285,-4.1025,-4.1024,-4.1024,0,0,-4.0456,-4.0482,-4.0526,-4.0606,-4.0636,-4.0709,-4.063,-4.071,-4.0765,-4.0713,-4.0818,-4.0836,-4.0883,-4.1007,-4.1062,-4.1026,-4.126,-4.1186,-4.1197,-4.1204,-4.1275,-4.13,-4.1322,-4.1032,-4.1031,-4.103,0,0,-4.0617,-4.0643,-4.0737,-4.0768,-4.0812,-4.0816,-4.0838,-4.0875,-4.0885,-4.099,-4.0953,-4.1018,-4.1134,-4.1169,-4.1202,-4.1378,-4.1347,-4.1399,-4.1494,-4.1567,-4.1587,-4.1606,-4.167,-4.1693,-4.1413,-4.1413,-4.1413,0,-4.0697,-4.0804,-4.0788,-4.0872,-4.0909,-4.0864,-4.0959,-4.099,-4.1054,-4.1082,-4.104,-4.1185,-4.1213,-4.1345,-4.1388,-4.1416,-4.1443,-4.1394,-4.1585,-4.1603,-4.162,-4.1681,-4.1705,-4.1419,-4.1419,-4.1418,-4.1417,0,-4.09,-4.0975,-4.1045,-4.1107,-4.1151,-4.124,-4.124,-4.1288,-4.1273,-4.1281,-4.1389,-4.1421,-4.1491,-4.1521,-4.1507,-4.1652,-4.1629,-4.1587,-4.1513,-4.1652,-4.1709,-4.1732,-4.1428,-4.1426,-4.1424,-4.1422,0,0,-4.1116,-4.1168,-4.1194,-4.1222,-4.1269,-4.1327,-4.1415,-4.1482,-4.1524,-4.1569,-4.1644,-4.1743,-4.1705,-4.1742,-4.1732,-4.1796,-4.1936,-4.1747,-4.1748,-4.1782,-4.2099,-4.2131,-4.2158,-4.1915,-4.1919,-4.1923,-4.2096,0,-4.128,-4.1431,-4.1421,-4.1564,-4.1634,-4.1593,-4.1669,-4.1707,-4.1718,-4.178,-4.1791,-4.1863,-4.1806,-4.1828,-4.189,-4.1906,-4.1999,-4.1893,-4.1986,-4.1989,-4.1976,-4.2188,-4.2222,-4.2384,-4.2118,-4.2122,-4.2124,0,-4.1492,-4.1545,-4.1695,-4.1732,-4.1761,-4.183,-4.1891,-4.195,-4.1993,-4.1996,-4.2038,-4.2018,-4.2108,-4.2032,-4.2157,-4.2085,-4.2123,-4.2136,-4.2142,-4.2151,-4.2066,-4.2204,-4.2435,-4.2459,-4.2159,-4.2156,-4.2154,0,-4.1637,-4.1745,-4.1849,-4.1874,-4.1919,-4.1969,-4.1991,-4.2029,-4.207,-4.2124,-4.2151,-4.2215,-4.2251,-4.2302,-4.23,-4.2244,-4.2428,-4.2351,-4.2434,-4.2435,-4.2475,-4.2473,-4.2716,-4.2498,-4.2498,-4.2497,-4.2497,0,-4.1822,-4.1916,-4.1914,-4.1978,-4.2083,-4.207,-4.2174,-4.2191,-4.2225,-4.2293,-4.2262,-4.2327,-4.2319,-4.2385,-4.2384,-4.2489,-4.2505,-4.2512,-4.2511,-4.2515,-4.2515,-4.254,-4.253,-4.2504,-4.2502,-4.2501,-4.25,0,-4.2001,-4.2003,-4.2114,-4.2148,-4.2159,-4.2235,-4.2265,-4.2326,-4.2334,-4.242,-4.244,-4.2452,-4.2528,-4.2531,-4.2619,-4.2618,-4.2746,-4.2732,-4.2732,-4.2729,-4.2813,-4.2806,-4.3082,-4.3119,-4.2876,-4.2878,-4.288,0,-4.212,-4.2191,-4.2232,-4.2275,-4.2299,-4.2369,-4.241,-4.2401,-4.2446,-4.2501,-4.2557,-4.2629,-4.2687,-4.2811,-4.2829,-4.2896,-4.2884,-4.2976,-4.2894,-4.2897,-4.2887,-4.2883,-4.2891,-4.2993,-4.2995,-4.2998,-4.2999,0,-4.2331,-4.2328,-4.2389,-4.2451,-4.2501,-4.255,-4.2595,-4.2632,-4.2628,-4.2681,-4.2757,-4.2802,-4.2891,-4.2965,-4.303,-4.3054,-4.3028,-4.3025,-4.3048,-4.3054,-4.3051,-4.3055,-4.2777,-4.3019,-4.3017,-4.3015,-4.3014,-4.3014,-4.2484,-4.2545,-4.2585,-4.2654,-4.2686,-4.2729,-4.2789,-4.2804,-4.2867,-4.2938,-4.2929,-4.3015,-4.3058,-4.3143,-4.3172,-4.3241,-4.3209,-4.3242,-4.3251,-4.3259,-4.3269,-4.304,-4.3252,-4.3252,-4.3251,-4.3251,-4.325,0,-4.2694,-4.2717,-4.2781,-4.2844,-4.2899,-4.2867,-4.2916,-4.2964,-4.304,-4.3081,-4.3138,-4.3227,-4.3299,-4.3322,-4.3392,-4.3442,-4.3432,-4.3461,-4.3458,-4.3464,-4.3293,-4.3266,-4.3468,-4.3468,-4.3468,-4.3468,-4.3468,-4.3468,-4.281,-4.2913,-4.2916,-4.3035,-4.3058,-4.3141,-4.3172,-4.3212,-4.3245,-4.3345,-4.3403,-4.3418,-4.3453,-4.3525,-4.359,-4.3595,-4.3623,-4.3657,-4.3658,-4.3498,-4.3476,-4.3455,-4.343,-4.3663,-4.3663,-4.3823,-4.3825,-4.3826]},{"header":{"parameterUnit":"m.s-1","parameterCategory":1,"la1":30.2991,"la2":30.254,"lo1":-89.0895,"lo2":-89.0444,"dy":0.0017,"dx":0.0017,"nx":28,"ny":28,"refTime":"2023-10-03T21:00:00:Z","depth":0,"parameterNumber":3,"parameterNumberName":"V-component_of_WINDS"},"data":[0,0,0,0,0,0,0,0,0,0,0,0,0,0,0,0,0,0,0,0,0,0,0,0,0,0,0,0,0,0,0,0,0,0,0,0,0,0,0,0,0,0,0,0,0,0,0,0,0,0,0,0,0,0,0,0,0,0,0.5012,0.5013,0,0.5087,0.5088,0.5089,0.5088,0.5087,0.5086,0.5085,0.5163,0.5165,0.5168,0,0,0,0,0,0,0,0,0,0,0,0,0,0.4871,0.4874,0.5012,0.5013,0.5014,0.5087,0.5088,0.5089,0.5088,0.5087,0.5086,0.5084,0.5162,0.5165,0.5169,0,0,0,0,0,0,0,0,0,0,0,0,0,0.4938,0.4875,0.5012,0.5022,0.5024,0.5087,0.5088,0.5089,0.5088,0.5087,0.5085,0.5084,0.516,0.5165,0.5169,0.5227,0,0,0.5183,0.5185,0,0,0,0,0,0,0,0,0.4934,0.4943,0.502,0.5022,0.5024,0.5077,0.5067,0.5136,0.5089,0.5064,0.5085,0.5083,0.5135,0.5142,0.5159,0.5231,0.5234,0.5183,0.5186,0.5188,0.5189,0,0,0,0,0,0,0,0.493,0.494,0.5042,0.5021,0.5024,0.5024,0.5032,0.508,0.5107,0.5066,0.5066,0.5075,0.5136,0.5155,0.5161,0.5235,0.5183,0.5187,0.519,0.5192,0.5361,0.5363,0,0,0,0,0,0,0.4923,0.4936,0.504,0.5044,0.4974,0.5028,0.5037,0.5061,0.5107,0.5112,0.5076,0.5075,0.5148,0.5156,0.5164,0.5237,0.5188,0.5192,0.5195,0.5359,0.5362,0.5363,0,0,0,0,0,0,0.492,0.4932,0.5037,0.499,0.5004,0.5032,0.506,0.5063,0.5082,0.5114,0.5119,0.509,0.5147,0.5157,0.5212,0.5239,0.5194,0.5198,0.5357,0.536,0.5362,0.5382,0,0,0,0,0,0,0.4916,0.4931,0.4952,0.4991,0.5006,0.5083,0.5061,0.5066,0.509,0.5089,0.5129,0.5134,0.5147,0.5205,0.5216,0.5245,0.5202,0.5355,0.5358,0.5362,0.5379,0.5385,0.539,0,0,0,0,0,0.4911,0.4954,0.4953,0.4966,0.5034,0.5084,0.5093,0.5107,0.5092,0.5115,0.5136,0.5133,0.5234,0.5211,0.5223,0.5254,0.5353,0.5357,0.5361,0.5377,0.5384,0.539,0,0,0,0,0,0,0.4918,0.496,0.4959,0.5016,0.5047,0.5084,0.5113,0.5113,0.5149,0.5146,0.5162,0.5171,0.5226,0.5245,0.5218,0.5313,0.5292,0.5299,0.5299,0.5307,0.5312,0.5307,0.5206,0,0,0,0,0,0.4927,0.4964,0.4998,0.5045,0.5061,0.5084,0.5107,0.5115,0.5147,0.516,0.5185,0.5217,0.5257,0.5282,0.532,0.5381,0.5392,0.5408,0.5414,0.5418,0.5425,0.5461,0.547,0.5377,0.5377,0.5377,0,0,0.4944,0.4971,0.4994,0.5048,0.5072,0.5112,0.5095,0.5137,0.5167,0.5167,0.5221,0.524,0.5277,0.5336,0.5363,0.5353,0.5453,0.5423,0.5427,0.5431,0.5467,0.5475,0.5483,0.538,0.5379,0.5379,0,0,0.4997,0.502,0.5064,0.5089,0.5127,0.5143,0.5153,0.5191,0.5204,0.5258,0.5259,0.5295,0.5362,0.539,0.5412,0.5478,0.5477,0.5489,0.5519,0.5555,0.5562,0.5569,0.5595,0.5604,0.5495,0.5495,0.5495,0,0.5015,0.5074,0.5086,0.5129,0.5154,0.5155,0.5201,0.5225,0.5273,0.5291,0.5279,0.5365,0.5389,0.5456,0.5472,0.549,0.5504,0.5486,0.556,0.5567,0.5573,0.5598,0.5608,0.5497,0.5496,0.5496,0.5496,0,0.5095,0.5136,0.5167,0.5214,0.5242,0.5286,0.5306,0.5333,0.5339,0.5356,0.5413,0.5442,0.5488,0.5504,0.5509,0.5572,0.5566,0.5556,0.5536,0.5583,0.5608,0.5617,0.5499,0.5498,0.5498,0.5497,0,0,0.5155,0.521,0.5221,0.5244,0.5286,0.5319,0.5364,0.5408,0.5432,0.5465,0.5505,0.5562,0.5555,0.5581,0.5589,0.562,0.5674,0.5608,0.5609,0.5622,0.5749,0.5757,0.5768,0.5673,0.5675,0.5677,0.5747,0,0.5215,0.5294,0.5308,0.5378,0.5417,0.542,0.5459,0.549,0.5508,0.5545,0.5564,0.5606,0.5592,0.5608,0.5638,0.5661,0.57,0.5656,0.5712,0.5714,0.5705,0.578,0.5788,0.5853,0.5756,0.5757,0.5759,0,0.5295,0.5331,0.5406,0.5445,0.5462,0.5497,0.5541,0.5575,0.5611,0.5622,0.5652,0.5657,0.5706,0.5681,0.5749,0.5719,0.5743,0.5757,0.576,0.5768,0.5741,0.5792,0.5874,0.5884,0.5773,0.5772,0.5771,0,0.5335,0.5402,0.5456,0.5475,0.5522,0.5547,0.5568,0.5602,0.5629,0.5667,0.5685,0.5727,0.5751,0.5785,0.5802,0.5782,0.587,0.5847,0.5882,0.5882,0.5902,0.5901,0.5992,0.5914,0.5913,0.5913,0.5913,0,0.5402,0.5448,0.5475,0.5509,0.5561,0.5576,0.5628,0.5648,0.5679,0.5718,0.5722,0.5758,0.5778,0.5818,0.5832,0.5888,0.5898,0.5909,0.5913,0.591,0.5909,0.5928,0.5925,0.5916,0.5915,0.5915,0.5914,0,0.5456,0.5476,0.5535,0.5575,0.5586,0.5623,0.5658,0.5691,0.5709,0.5758,0.577,0.5799,0.5846,0.5866,0.5923,0.5933,0.5998,0.5997,0.5986,0.5988,0.6024,0.6021,0.6131,0.6147,0.6056,0.6057,0.6057,0,0.5498,0.5534,0.5578,0.5604,0.5626,0.5667,0.5695,0.5712,0.5741,0.5786,0.5814,0.5861,0.59,0.5975,0.6002,0.6047,0.6048,0.6084,0.6055,0.6053,0.6052,0.6051,0.6056,0.609,0.6091,0.6091,0.6092,0,0.5572,0.5581,0.562,0.5664,0.5697,0.5732,0.5767,0.5788,0.5811,0.5843,0.5891,0.5922,0.5981,0.6029,0.6076,0.6098,0.61,0.61,0.6112,0.6111,0.6104,0.6111,0.6003,0.6098,0.6098,0.6097,0.6097,0.6097,0.5624,0.5657,0.5694,0.5738,0.5766,0.5799,0.5833,0.5855,0.5896,0.5946,0.5953,0.6006,0.6043,0.6106,0.613,0.6173,0.6164,0.6179,0.6184,0.6188,0.6192,0.6095,0.6181,0.6181,0.618,0.618,0.618,0,0.5701,0.5725,0.5766,0.5814,0.585,0.5848,0.5886,0.5917,0.5963,0.5997,0.6036,0.6093,0.6139,0.617,0.6217,0.6245,0.6248,0.6258,0.6257,0.6263,0.6195,0.6182,0.6255,0.6255,0.6255,0.6255,0.6255,0.6255,0.5745,0.5802,0.5815,0.5886,0.591,0.5962,0.5985,0.6015,0.6043,0.6107,0.6146,0.6165,0.6199,0.6249,0.6293,0.63,0.6319,0.633,0.6338,0.6275,0.6267,0.626,0.6248,0.6333,0.6333,0.6402,0.6403,0.6403]}]]